Regional Weather Roundup
Issued by NWS Charleston, WV

Home | Current Version | Previous Version | Graphics & Text | Print | Product List | Glossary On
Versions: 1 2 3 4 5 6 7 8 9 10 11 12 13 14 15 16 17 18 19 20 21 22 23 24 25 26 27 28
000
ASUS41 KRLX 120510
RWRRLX
West Virginia Regional Weather Roundup
National Weather Service Charleston WV
1200 AM EST TUE DEC 12 2017

Note: "fair" indicates few or no clouds below 12,000 feet with no
significant weather and/or obstructions to visibility.

WVZ003-120600-
Northern Panhandle of West Virginia

CITY           SKY/WX    TMP DP  RH WIND       PRES   REMARKS
WHEELING       PTCLDY    34  21  59 SE5       29.62F
$$

WVZ009-120600-
Northwest West Virginia

CITY           SKY/WX    TMP DP  RH WIND       PRES   REMARKS
PARKERSBURG    CLOUDY    37  25  61 S9        29.68F
$$

WVZ006-120600-
Western West Virginia

CITY           SKY/WX    TMP DP  RH WIND       PRES   REMARKS
HUNTINGTON     PTCLDY    48  28  46 SW10      29.71R
$$

WVZ015-120600-
West Central West Virginia

CITY           SKY/WX    TMP DP  RH WIND       PRES   REMARKS
CHARLESTON     CLOUDY    51  27  39 SW10      29.69F
$$

WVZ022-031-120600-
North Central West Virginia

CITY           SKY/WX    TMP DP  RH WIND       PRES   REMARKS
CLARKSBURG     CLOUDY    35  25  66 CALM      29.67F
MORGANTOWN     PTCLDY    34  24  67 S5        29.66F
$$

WVZ025-035-042-045-120600-
Southern West Virginia

CITY           SKY/WX    TMP DP  RH WIND       PRES   REMARKS
BECKLEY        PTCLDY    44  25  47 SW10G21   29.73F
LOGAN            N/A     48  27  43 S3G12     29.72F
BLUEFIELD      PTCLDY    42  25  50 W15G22    29.76F
LEWISBURG      CLOUDY    31  26  80 CALM      29.76F
$$

WVZ047-120600-
Northern Mountains of West Virginia

CITY           SKY/WX    TMP DP  RH WIND       PRES   REMARKS
ELKINS         PTCLDY    28  24  85 CALM      29.70F
$$

WVZ052-120600-
Eastern Panhandle of West Virginia

CITY           SKY/WX    TMP DP  RH WIND       PRES   REMARKS
MARTINSBURG    MOCLDY    36  26  67 SE5       29.76F
PETERSBURG     CLOUDY    27  23  84 CALM      29.72F
$$




USA.gov is the U.S. government's official web portal to all federal, state and local government web resources and services.